Weather History for Valparaiso, IN

Change the Weather History Date:

Saturday, January 28, 2012

  Actual Average Record
Temperature  
Mean Temperature 30 °F 24 °F  
Max Temperature 33 °F 31 °F 60 °F (2002)
Min Temperature 27 °F 16 °F -16 °F (2014)
Degree Days  
Heating Degree Days 35 41  
Month to date heating degree days 1020 1163  
Since 1 July heating degree days 3565  
Cooling Degree Days 0 0  
Month to date cooling degree days 0 0  
Year to date cooling degree days 0 0  
Moisture  
Dew Point 25 °F    
Average Humidity 83    
Maximum Humidity 100    
Minimum Humidity 57    
Precipitation  
Precipitation 0.01 in 0.05 in 0.16 in (2006)
Month to date precipitation 1.52 1.58  
Year to date precipitation 1.52 1.58  
Sea Level Pressure  
Sea Level Pressure 29.97 in    
Wind  
Wind Speed 17 mph (WSW)    
Max Wind Speed 32 mph    
Max Gust Speed 39 mph    
Visibility 7 miles    
Events Snow    
T = Trace of Precipitation, MM = Missing Value Source: NWS Daily Summary

Daily Weather History Graph

Daily Weather History Graph

Search for Another Location

Airport:

Trip Planner

Search our weather history database for the weather conditions in past years. The results will help you decide how hot, cold, wet, or windy it might be!

Date:

Astronomy

Jan. 28, 2012 Rise Set
Actual Time 7:03 AM CST 4:58 PM CST
Civil Twilight 6:34 AM CST 5:28 PM CST
Nautical Twilight 6:00 AM CST 6:01 PM CST
Astronomical Twilight 5:28 AM CST 6:34 PM CST
Moon 9:20 AM CST (1/28) 10:51 PM CST (1/28)
Length of Visible Light 10h 53m
Length of Day
9h 54m
Waxing Crescent, 28% of the Moon is Illuminated
Jan 28
Waxing Crescent
Jan 30
First Quarter
Feb 7
Full
Feb 14
Last Quarter
Feb 21
New

Hourly Weather History & Observations

Time (CST) Temp. Windchill Dew Point Humidity Pressure Visibility Wind Dir Wind Speed Gust Speed Precip Events Conditions
12:02 AM 32.0 °F 24.2 °F 32.0 °F 100% 29.91 in 1.5 mi SW 9.2 mph - 0.00 in Snow Light Snow
12:36 AM 32.0 °F 24.2 °F 32.0 °F 100% 29.89 in 2.5 mi SW 9.2 mph - 0.00 in Snow Light Snow
12:53 AM 32.0 °F 23.6 °F 32.0 °F 100% 29.91 in 2.0 mi SW 10.4 mph - 0.00 in Snow Light Snow
1:19 AM 32.0 °F 23.6 °F 32.0 °F 100% 29.87 in 1.2 mi SSW 10.4 mph - 0.00 in Snow Light Snow
1:53 AM 32.0 °F 23.6 °F 32.0 °F 100% 29.88 in 1.8 mi SSW 10.4 mph - 0.00 in Snow Light Snow
2:26 AM 32.0 °F 23.0 °F 32.0 °F 100% 29.85 in 2.0 mi SSW 11.5 mph - 0.01 in Snow Light Snow
2:34 AM 32.0 °F 23.0 °F 32.0 °F 100% 29.85 in 1.5 mi SW 11.5 mph - 0.01 in Snow Light Snow
2:53 AM 33.1 °F 23.4 °F 32.0 °F 96% 29.86 in 1.5 mi SW 13.8 mph - 0.01 in Snow Light Snow
3:11 AM 33.8 °F 22.8 °F 32.0 °F 93% 29.84 in 2.5 mi SW 18.4 mph 24.2 mph 0.00 in Snow Light Snow
3:40 AM 33.8 °F 23.5 °F 32.0 °F 93% 29.83 in 1.5 mi SW 16.1 mph - 0.00 in Snow Light Snow
3:53 AM 33.1 °F 22.6 °F 30.9 °F 92% 29.84 in 1.2 mi SW 16.1 mph - 0.00 in Snow Light Snow
4:27 AM 32.0 °F 20.5 °F 30.2 °F 93% 29.82 in 2.0 mi WSW 18.4 mph 23.0 mph 0.00 in Snow Light Snow
4:45 AM 32.0 °F 20.1 °F 30.2 °F 93% 29.82 in 5.0 mi WSW 19.6 mph 26.5 mph 0.00 in Snow Light Snow
4:53 AM 32.0 °F 19.8 °F 30.0 °F 92% 29.84 in 9.0 mi WSW 20.7 mph - 0.00 in   Overcast
5:53 AM 32.0 °F 19.5 °F 28.0 °F 85% 29.86 in 10.0 mi West 21.9 mph 35.7 mph N/A   Overcast
6:53 AM 30.0 °F 16.6 °F 26.1 °F 85% 29.90 in 9.0 mi West 23.0 mph 29.9 mph N/A   Overcast
7:00 AM 30.2 °F 17.8 °F 26.6 °F 86% 29.88 in 9.0 mi West 19.6 mph 27.6 mph 0.00 in Snow Light Snow
7:35 AM 28.4 °F 15.4 °F 24.8 °F 86% 29.90 in 10.0 mi West 19.6 mph 31.1 mph 0.00 in   Scattered Clouds
7:53 AM 28.0 °F 14.6 °F 23.0 °F 81% 29.95 in 10.0 mi West 20.7 mph 27.6 mph 0.00 in   Clear
8:53 AM 27.0 °F 13.5 °F 19.0 °F 72% 29.99 in 10.0 mi West 19.6 mph 31.1 mph N/A   Clear
10:53 AM 28.9 °F 16.5 °F 17.1 °F 61% 30.06 in 10.0 mi West 18.4 mph 31.1 mph N/A   Clear
11:53 AM 30.0 °F 17.5 °F 19.0 °F 64% 30.06 in 10.0 mi West 19.6 mph - N/A   Clear
12:53 PM 30.0 °F 16.3 °F 18.0 °F 61% 30.07 in 10.0 mi West 24.2 mph 32.2 mph N/A   Clear
1:53 PM 30.0 °F 17.5 °F 19.0 °F 64% 30.09 in 10.0 mi West 19.6 mph 31.1 mph N/A   Clear
2:53 PM 30.0 °F 16.3 °F 18.0 °F 61% 30.12 in 10.0 mi WSW 24.2 mph 33.4 mph N/A   Clear
3:53 PM 30.9 °F 18.4 °F 17.1 °F 57% 30.14 in 10.0 mi WSW 20.7 mph 27.6 mph N/A   Clear
4:53 PM 28.9 °F 15.8 °F 19.9 °F 69% 30.15 in 10.0 mi WSW 20.7 mph 26.5 mph N/A   Clear
5:53 PM 28.0 °F 16.5 °F 19.9 °F 72% 30.16 in 10.0 mi WSW 15.0 mph - N/A   Clear
6:53 PM 28.0 °F 16.5 °F 21.9 °F 78% 30.16 in 10.0 mi WSW 15.0 mph - N/A   Clear
7:53 PM 28.0 °F 17.0 °F 21.0 °F 75% 30.16 in 10.0 mi SW 13.8 mph - N/A   Clear
8:53 PM 28.9 °F 17.7 °F 21.0 °F 72% 30.14 in 10.0 mi WSW 15.0 mph - N/A   Clear
9:53 PM 27.0 °F 17.3 °F 19.9 °F 75% 30.12 in 10.0 mi SW 10.4 mph - N/A   Clear
10:53 PM 27.0 °F 16.7 °F 21.0 °F 78% 30.10 in 10.0 mi SSW 11.5 mph - N/A   Clear
11:53 PM 28.9 °F 18.2 °F 21.0 °F 72% 30.08 in 10.0 mi SW 13.8 mph - N/A   Clear